Agua Dulce, CA Past Weather

Last 30 Days

High: 90ºf @2:59 PM    Low: 68ºf @6:59 AM     Approx. Precipitation / Rain Total: in.
Time (PDT)Temp. (ºf)Humidity (%)Dew Point (ºf)Barometer (inHG)Wind Speed (mph)Wind DirectionWind Gust (mph)1hr. Precip / Rain Total (in.)Snow Depth
7:59 PM741523.42-12.17ssw18.25--
6:59 PM771525.81-13.9ssw18.25--
5:59 PM831530.57-13.9ssw22.59--
4:59 PM851735.28-13.9ssw26.07--
3:59 PM881330.97-15.64s25.2--
2:59 PM901128.42-14.77ssw24.33--
1:59 PM891025.36-13.03ssw27.81--
12:59 PM89820.07-13.9s21.72--
11:59 AM87818.59-13.03ssw20.86--
10:59 AM841429.67-13.03s19.99--
9:59 AM811630.57-11.3s16.51--
8:59 AM762133.23-9.56s14.77--
7:59 AM713340.44-11.3ssw13.9--
6:59 AM683136.23-10.43ssw13.9--
5:59 AM683136.23-11.3ssw14.77--
4:59 AM693036.27-13.03ssw18.25--
3:59 AM702734.48-13.9ssw19.12--
2:59 AM693741.63-13.03ssw18.25--
High: 87ºf @2:59 PM    Low: 67ºf @5:59 AM     Approx. Precipitation / Rain Total: in.
Time (PDT)Temp. (ºf)Humidity (%)Dew Point (ºf)Barometer (inHG)Wind Speed (mph)Wind DirectionWind Gust (mph)1hr. Precip / Rain Total (in.)Snow Depth
11:59 PM712533.4-13.03ssw16.51--
10:59 PM712836.25-10.43ssw14.77--
9:59 PM712735.33-11.3ssw17.38--
8:59 PM712735.33-12.17ssw17.38--
7:59 PM722534.25-13.03ssw19.99--
6:59 PM753041.45-14.77ssw22.59--
5:59 PM792843.09-16.51ssw24.33--
4:59 PM832543.52-17.38ssw26.94--
3:59 PM852747.24-17.38s26.94--
2:59 PM872748.94-16.51s23.46--
1:59 PM862950.01-15.64s25.2--
12:59 PM853150.94-14.77s23.46--
11:59 AM833451.71-13.9s20.86--
10:59 AM813651.5-13.03s19.12--
9:59 AM793145.76-13.03s19.99--
8:59 AM753444.71-13.9s19.99--
7:59 AM712836.25-13.03ssw15.64--
6:59 AM682631.83-11.3ssw13.9--
5:59 AM672731.91-11.3ssw14.77--
4:59 AM682833.67-9.56sw13.03--
3:59 AM682732.77-12.17sw14.77--
2:59 AM683337.82-11.3ssw17.38--
1:59 AM693137.1-12.17ssw15.64--
12:59 AM693439.45-11.3sw16.51--
High: 88ºf @2:59 PM    Low: 68ºf @5:59 AM     Approx. Precipitation / Rain Total: in.
Time (PDT)Temp. (ºf)Humidity (%)Dew Point (ºf)Barometer (inHG)Wind Speed (mph)Wind DirectionWind Gust (mph)1hr. Precip / Rain Total (in.)Snow Depth
11:59 PM703541.08-11.3sw13.9--
10:59 PM703641.81-7.82sw17.38--
9:59 PM703339.56-12.17ssw16.51--
8:59 PM713340.44-13.03ssw19.12--
7:59 PM733543.72-14.77ssw27.81--
6:59 PM763243.99-20.86s30.41--
5:59 PM802642.01-18.25ssw32.15--
4:59 PM841835.92-18.25s27.81--
3:59 PM861736.09-16.51s25.2--
2:59 PM881534.53-15.64s25.2--
1:59 PM871838.34-17.38ssw27.81--
12:59 PM811934.84-14.77ssw25.2--
11:59 AM851836.72-11.3s17.38--
10:59 AM831733.67-8.69s18.25--
9:59 AM782134.89-8.69s16.51--
8:59 AM772032.84-10.43ssw17.38--
7:59 AM722129.92-12.17ssw15.64--
6:59 AM693036.27-10.43ssw14.77--
5:59 AM683640.04-12.17ssw19.12--
4:59 AM694345.56-13.9ssw18.25--
3:59 AM694446.17-13.03ssw18.25--
2:59 AM693338.69-13.9sw19.12--
1:59 AM693741.63-10.43ssw18.25--
12:59 AM713138.83-13.03ssw16.51--
High: 91ºf @1:59 PM    Low: 70ºf @11:59 PM     Approx. Precipitation / Rain Total: in.
Time (PDT)Temp. (ºf)Humidity (%)Dew Point (ºf)Barometer (inHG)Wind Speed (mph)Wind DirectionWind Gust (mph)1hr. Precip / Rain Total (in.)Snow Depth
11:59 PM703339.56-11.3ssw18.25--
10:59 PM712331.33-14.77ssw19.12--
9:59 PM713541.96-13.03ssw17.38--
8:59 PM723744.29-13.9sw19.99--
7:59 PM733644.45-14.77ssw19.12--
6:59 PM773647.98-13.03ssw21.72--
5:59 PM813449.96-14.77ssw26.07--
4:59 PM852949.15-15.64ssw23.46--
3:59 PM872344.69-14.77ssw24.33--
2:59 PM901840.77-15.64s23.46--
1:59 PM911638.55-15.64s22.59--
12:59 PM901434.38-12.17s20.86--
11:59 AM901332.53-13.03s19.12--
10:59 AM871635.36-9.56s15.64--
9:59 AM841734.48-9.56s17.38--
8:59 AM811732.06-9.56ssw13.9--
7:59 AM782134.89-8.69ssw11.3--
6:59 AM752334.68-9.56ssw12.17--
5:59 AM742838.81-8.69ssw10.43--
4:59 AM752940.57-6.95ssw9.56--
3:59 AM753343.93-6.08sw8.69--
2:59 AM753142.3-5.21sw12.17--
1:59 AM743746.06-8.69ssw12.17--
12:59 AM753041.45-9.56ssw13.9--
High: 94ºf @2:59 PM    Low: 74ºf @2:59 AM     Approx. Precipitation / Rain Total: in.
Time (PDT)Temp. (ºf)Humidity (%)Dew Point (ºf)Barometer (inHG)Wind Speed (mph)Wind DirectionWind Gust (mph)1hr. Precip / Rain Total (in.)Snow Depth
11:59 PM752435.75-9.56ssw12.17--
10:59 PM751828.61-8.69sw13.03--
9:59 PM752233.57-11.3sw15.64--
8:59 PM752536.78-12.17ssw19.12--
7:59 PM772235.23-13.03ssw19.99--
6:59 PM812238.55-13.9ssw20.86--
5:59 PM862040.23-13.9ssw23.46--
4:59 PM891738.49-14.77s25.2--
3:59 PM911536.9-13.9s21.72--
2:59 PM941233.63-13.03s22.59--
1:59 PM931232.86-12.17s20.86--
12:59 PM931130.71-11.3ssw16.51--
11:59 AM921027.62-9.56s14.77--
10:59 AM911129.18-6.95sse13.03--
9:59 AM871126.13-3.48s8.69--
8:59 AM841021.58-4.34s7.82--
7:59 AM80916.11-2.61sse5.21--
6:59 AM7677.5-3.48s6.08--
5:59 AM7476.04-5.21s8.69--
4:59 AM7462.7-7.82s10.43--
3:59 AM745-1.18-8.69s11.3--
2:59 AM745-1.18-6.08s9.56--
1:59 AM7476.04-5.21sse6.08--
12:59 AM7488.98-3.48ssw5.21--
High: 91ºf @1:59 PM    Low: 68ºf @1:59 AM     Approx. Precipitation / Rain Total: in.
Time (PDT)Temp. (ºf)Humidity (%)Dew Point (ºf)Barometer (inHG)Wind Speed (mph)Wind DirectionWind Gust (mph)1hr. Precip / Rain Total (in.)Snow Depth
11:59 PM741320.04-3.48sw5.21--
10:59 PM731725.61-4.34sw7.82--
9:59 PM741218.18-6.08sw13.9--
8:59 PM741218.18-11.3ssw18.25--
7:59 PM732231.9-13.9ssw17.38--
6:59 PM772336.35-10.43ssw16.51--
5:59 PM822441.62-13.03s18.25--
4:59 PM861938.91-13.03s22.59--
3:59 PM891941.35-13.03s20.86--
2:59 PM901739.3-13.03s19.99--
1:59 PM911841.57-11.3s19.99--
12:59 PM901637.75-10.43s16.51--
11:59 AM901536.11-6.08s10.43--
10:59 AM871736.89-3.48se8.69--
9:59 AM832139.02-5.21sse9.56--
8:59 AM812036.13-2.61w6.08--
7:59 AM771931.57-3.48nw7.82--
6:59 AM723442.08-5.21wnw8.69--
5:59 AM694647.35-6.95sw15.64--
4:59 AM694848.48-11.3sw16.51--
3:59 AM694546.76-11.3sw17.38--
2:59 AM704748.83-7.82wsw13.03--
1:59 AM685149.19-5.21sw9.56--
12:59 AM684646.44-7.82ssw12.17--
High: 82ºf @11:59 AM    Low: 64ºf @1:59 AM     Approx. Precipitation / Rain Total: in.
Time (PDT)Temp. (ºf)Humidity (%)Dew Point (ºf)Barometer (inHG)Wind Speed (mph)Wind DirectionWind Gust (mph)1hr. Precip / Rain Total (in.)Snow Depth
11:59 PM665750.32-7.82ssw12.17--
10:59 PM665448.87-8.69ssw11.3--
9:59 PM684847.57-8.69ssw10.43--
8:59 PM685551.22-6.95ssw13.9--
7:59 PM695451.65-11.3ssw15.64--
6:59 PM715051.41-12.17ssw19.12--
5:59 PM754451.59-13.9ssw20.86--
4:59 PM764251.23-14.77ssw21.72--
3:59 PM773647.98-15.64ssw23.46--
2:59 PM803650.62-15.64ssw24.33--
1:59 PM774252.13-14.77ssw23.46--
12:59 PM803952.79-13.9s20.86--
11:59 AM823753.13-12.17s19.12--
10:59 AM774453.4-9.56s14.77--
9:59 AM715051.41-7.82ssw12.17--
8:59 AM685651.71-7.82ssw10.43--
7:59 AM656352.09-8.69ssw12.17--
6:59 AM646652.41-9.56ssw12.17--
5:59 AM656352.09-10.43ssw13.03--
4:59 AM656151.22-10.43ssw13.03--
3:59 AM646652.41-11.3ssw13.9--
2:59 AM646551.99-11.3s15.64--
1:59 AM646451.57-12.17s16.51--
12:59 AM656251.66-12.17ssw15.64--
High: 86ºf @2:59 PM    Low: 66ºf @6:59 AM     Approx. Precipitation / Rain Total: in.
Time (PDT)Temp. (ºf)Humidity (%)Dew Point (ºf)Barometer (inHG)Wind Speed (mph)Wind DirectionWind Gust (mph)1hr. Precip / Rain Total (in.)Snow Depth
11:59 PM666152.16-10.43ssw13.9--
10:59 PM676052.65-8.69ssw12.17--
9:59 PM676153.1-9.56ssw13.03--
8:59 PM676153.1-9.56ssw12.17--
7:59 PM686154.04-9.56ssw17.38--
6:59 PM715554.01-13.03s19.12--
5:59 PM744953.61-15.64s20.86--
4:59 PM774554.01-15.64s22.59--
3:59 PM794253.92-13.9ssw19.99--
2:59 PM863353.51-12.17s17.38--
1:59 PM823551.62-11.3ssw15.64--
12:59 PM813752.25-11.3s17.38--
11:59 AM774050.81-11.3s16.51--
10:59 AM774252.13-12.17s17.38--
9:59 AM754753.38-10.43ssw13.9--
8:59 AM705754.05-9.56ssw14.77--
7:59 AM675952.19-11.3ssw14.77--
6:59 AM666051.71-8.69ssw10.43--
5:59 AM666252.6-8.69ssw12.17--
4:59 AM666553.89-7.82ssw13.03--
3:59 AM666353.04-9.56ssw13.9--
2:59 AM685953.13-8.69ssw13.03--
1:59 AM676253.54-9.56ssw10.43--
12:59 AM695753.12-6.08ssw8.69--
High: 89ºf @1:59 PM    Low: 69ºf @11:59 PM     Approx. Precipitation / Rain Total: in.
Time (PDT)Temp. (ºf)Humidity (%)Dew Point (ºf)Barometer (inHG)Wind Speed (mph)Wind DirectionWind Gust (mph)1hr. Precip / Rain Total (in.)Snow Depth
11:59 PM695853.6-5.21sw8.69--
10:59 PM705653.57-4.34sw9.56--
9:59 PM705653.57-6.95sw13.03--
8:59 PM705754.05-10.43ssw16.51--
7:59 PM725152.87-13.03ssw19.99--
6:59 PM764653.71-14.77ssw22.59--
5:59 PM804053.48-15.64ssw22.59--
4:59 PM843654.14-13.9ssw27.81--
3:59 PM863252.67-14.77ssw21.72--
2:59 PM892851.62-13.03ssw19.12--
1:59 PM892750.64-13.03s17.38--
12:59 PM882850.77-10.43s15.64--
11:59 AM892750.64-7.82s12.17--
10:59 AM843250.94-6.95sse11.3--
9:59 AM813550.74-5.21sse7.82--
8:59 AM803751.36-2.61ssw4.34--
7:59 AM784051.7-0.87nnw4.34--
6:59 AM744551.29-2.61nw3.48--
5:59 AM724650.07-3.48nnw9.56--
4:59 AM724650.07-6.95wnw10.43--
3:59 AM714850.31-5.21nw11.3--
2:59 AM724650.07-5.21wnw14.77--
1:59 AM724650.07-5.21wnw12.17--
12:59 AM724549.48-6.08wnw12.17--
High: 85ºf @1:59 PM    Low: 64ºf @4:59 AM     Approx. Precipitation / Rain Total: in.
Time (PDT)Temp. (ºf)Humidity (%)Dew Point (ºf)Barometer (inHG)Wind Speed (mph)Wind DirectionWind Gust (mph)1hr. Precip / Rain Total (in.)Snow Depth
11:59 PM714749.74-6.08w12.17--
10:59 PM704547.67-5.21wsw11.3--
9:59 PM694546.76-6.08wsw9.56--
8:59 PM694546.76-5.21wsw10.43--
7:59 PM704648.26-7.82ssw14.77--
6:59 PM744148.79-10.43s19.12--
5:59 PM783648.86-13.03ssw22.59--
4:59 PM813449.96-14.77ssw23.46--
3:59 PM833250.07-14.77ssw25.2--
2:59 PM853050.06-16.51ssw25.2--
1:59 PM853150.94-15.64s23.46--
12:59 PM853150.94-14.77s20.86--
11:59 AM833350.9-13.03s19.12--
10:59 AM803549.86-11.3s15.64--
9:59 AM773849.43-7.82s11.3--
8:59 AM734147.89-4.34s12.17--
7:59 AM714749.74-8.69sw12.17--
6:59 AM694647.35-8.69sw12.17--
5:59 AM665750.32-8.69sw13.03--
4:59 AM644944.45-6.95ssw8.69--
3:59 AM664745.18-4.34ssw8.69--
2:59 AM664544.04-6.95ssw9.56--
1:59 AM664242.24-6.95sw10.43--
12:59 AM674343.76-6.95ssw10.43--
High: 88ºf @1:59 PM    Low: 67ºf @11:59 PM     Approx. Precipitation / Rain Total: in.
Time (PDT)Temp. (ºf)Humidity (%)Dew Point (ºf)Barometer (inHG)Wind Speed (mph)Wind DirectionWind Gust (mph)1hr. Precip / Rain Total (in.)Snow Depth
11:59 PM674846.65-7.82sw12.17--
10:59 PM694546.76-9.56sw11.3--
9:59 PM704044.56-9.56ssw13.9--
8:59 PM704346.46-11.3ssw15.64--
7:59 PM714246.74-12.17ssw19.99--
6:59 PM744249.44-14.77ssw20.86--
5:59 PM784152.37-14.77ssw22.59--
4:59 PM823652.38-16.51ssw29.55--
3:59 PM843654.14-16.51ssw25.2--
2:59 PM823753.13-18.25s26.07--
1:59 PM883254.4-15.64s21.72--
12:59 PM873354.38-12.17s22.59--
11:59 AM863655.9-11.3s17.38--
10:59 AM843956.35-9.56s13.9--
9:59 AM805059.66-5.21s9.56--
8:59 AM785560.5---4.34--
7:59 AM746360.59-0.87nne6.08--
6:59 AM706959.35-5.21e7.82--
5:59 AM687860.88-1.74ne5.21--
4:59 AM677960.26-1.74n5.21--
3:59 AM687258.63-2.61n3.48--
2:59 AM705452.58-1.74n6.95--
1:59 AM695753.12-5.21sw7.82--
12:59 AM695753.12-5.21ssw7.82--
High: 86ºf @1:59 PM    Low: 66ºf @3:59 AM     Approx. Precipitation / Rain Total: in.
Time (PDT)Temp. (ºf)Humidity (%)Dew Point (ºf)Barometer (inHG)Wind Speed (mph)Wind DirectionWind Gust (mph)1hr. Precip / Rain Total (in.)Snow Depth
11:59 PM714850.31-4.34sw6.95--
10:59 PM724147-5.21sw7.82--
9:59 PM715453.5-6.08sw10.43--
8:59 PM715554.01-6.95ssw14.77--
7:59 PM715453.5-12.17s19.99--
6:59 PM744953.61-15.64ssw24.33--
5:59 PM784253.03-15.64ssw23.46--
4:59 PM793851.2-13.9ssw24.33--
3:59 PM842948.29-15.64s26.07--
2:59 PM843150.08-16.51ssw25.2--
1:59 PM862950.01-16.51s26.94--
12:59 PM852848.21-15.64ssw22.59--
11:59 AM852646.24-12.17s17.38--
10:59 AM853050.06-11.3s14.77--
9:59 AM793649.74-7.82ssw13.03--
8:59 AM733946.57-9.56s13.03--
7:59 AM695351.15-10.43ssw13.9--
6:59 AM676052.65-11.3ssw13.9--
5:59 AM666252.6-11.3ssw14.77--
4:59 AM665951.25-12.17ssw15.64--
3:59 AM666453.47-12.17ssw14.77--
2:59 AM686254.48-11.3ssw13.9--
1:59 AM696154.98-10.43ssw13.03--
12:59 AM706055.46-9.56ssw13.03--
High: 89ºf @12:59 PM    Low: 70ºf @6:59 AM     Approx. Precipitation / Rain Total: in.
Time (PDT)Temp. (ºf)Humidity (%)Dew Point (ºf)Barometer (inHG)Wind Speed (mph)Wind DirectionWind Gust (mph)1hr. Precip / Rain Total (in.)Snow Depth
11:59 PM706055.46-8.69ssw13.9--
10:59 PM725956.87-10.43sw14.77--
9:59 PM725856.4-9.56sw16.51--
8:59 PM715955.94-12.17ssw16.51--
7:59 PM735455.36-11.3ssw20.86--
6:59 PM764955.44-14.77ssw20.86--
5:59 PM814155.05-13.9ssw26.07--
4:59 PM843654.14-13.9ssw23.46--
3:59 PM873051.78-13.03ssw19.12--
2:59 PM883052.64-11.3ssw17.38--
1:59 PM873051.78-11.3s16.51--
12:59 PM892851.62-9.56s17.38--
11:59 AM873354.38-9.56s13.9--
10:59 AM823450.83-9.56s12.17--
9:59 AM783548.11-6.08ssw10.43--
8:59 AM733543.72-7.82ssw9.56--
7:59 AM734047.24-6.95s9.56--
6:59 AM704044.56-6.95ssw9.56--
5:59 AM714146.1-6.95ssw10.43--
4:59 AM714246.74-7.82ssw11.3--
3:59 AM724448.88-7.82ssw10.43--
2:59 AM724147-8.69ssw13.9--
1:59 AM723945.67-10.43ssw13.03--
12:59 AM714246.74-11.3ssw13.9--
High: 89ºf @1:59 PM    Low: 67ºf @3:59 AM     Approx. Precipitation / Rain Total: in.
Time (PDT)Temp. (ºf)Humidity (%)Dew Point (ºf)Barometer (inHG)Wind Speed (mph)Wind DirectionWind Gust (mph)1hr. Precip / Rain Total (in.)Snow Depth
11:59 PM705151.03-11.3ssw13.9--
10:59 PM705151.03-9.56ssw14.77--
9:59 PM724448.88-12.17sw16.51--
8:59 PM714347.36-14.77ssw18.25--
7:59 PM715051.41-13.9ssw19.12--
6:59 PM764049.92-14.77ssw23.46--
5:59 PM803247.47-15.64ssw26.94--
4:59 PM842847.36-16.51s24.33--
3:59 PM862647.09-15.64s26.07--
2:59 PM882446.65-13.9ssw24.33--
1:59 PM892346.35-13.03ssw18.25--
12:59 PM872243.52-12.17s17.38--
11:59 AM872243.52-10.43s13.9--
10:59 AM822542.68-7.82sse12.17--
9:59 AM783144.89-8.69s12.17--
8:59 AM762941.43-5.21s7.82--
7:59 AM743040.59-4.34wsw9.56--
6:59 AM703339.56-6.95sw11.3--
5:59 AM693439.45-8.69ssw11.3--
4:59 AM683438.58-7.82sw10.43--
3:59 AM673739.86-9.56ssw15.64--
2:59 AM683740.75-12.17ssw15.64--
1:59 AM693741.63-11.3ssw17.38--
12:59 AM693842.33-13.03sw16.51--
High: 87ºf @11:59 AM    Low: 67ºf @11:59 PM     Approx. Precipitation / Rain Total: in.
Time (PDT)Temp. (ºf)Humidity (%)Dew Point (ºf)Barometer (inHG)Wind Speed (mph)Wind DirectionWind Gust (mph)1hr. Precip / Rain Total (in.)Snow Depth
11:59 PM674947.2-12.17ssw16.51--
10:59 PM694144.31-7.82ssw13.03--
9:59 PM704447.07-10.43ssw14.77--
8:59 PM704949.95-11.3ssw13.9--
7:59 PM714347.36-9.56ssw13.9--
6:59 PM763647.1-9.56ssw13.9--
5:59 PM773446.46-10.43ssw15.64--
4:59 PM783144.89-10.43ssw15.64--
3:59 PM842847.36-10.43ssw17.38--
2:59 PM842645.4-10.43ssw15.64--
1:59 PM822744.69-8.69ssw14.77--
12:59 PM842544.37-8.69ssw13.9--
11:59 AM872243.52-8.69s10.43--
10:59 AM862343.86-6.95sse9.56--
9:59 AM822441.62-3.48sse6.95--
8:59 AM832543.52-1.74wnw7.82--
7:59 AM782842.24-3.48nw7.82--
6:59 AM753041.45-4.34wnw8.69--
5:59 AM733039.72-5.21wnw10.43--
4:59 AM723038.86-4.34nw9.56--
3:59 AM673236.16-4.34wsw10.43--
2:59 AM673135.36-8.69sw13.03--
1:59 AM673336.94-10.43ssw14.77--
12:59 AM673336.94-12.17ssw13.9--
High: 86ºf @1:59 PM    Low: 66ºf @4:59 AM     Approx. Precipitation / Rain Total: in.
Time (PDT)Temp. (ºf)Humidity (%)Dew Point (ºf)Barometer (inHG)Wind Speed (mph)Wind DirectionWind Gust (mph)1hr. Precip / Rain Total (in.)Snow Depth
11:59 PM673236.16-11.3ssw13.9--
10:59 PM682732.77-6.95sw11.3--
9:59 PM682934.55-7.82sw12.17--
8:59 PM693237.91-7.82sw13.03--
7:59 PM712027.91-12.17sw17.38--
6:59 PM742131.58-13.9ssw19.99--
5:59 PM782033.67-14.77ssw22.59--
4:59 PM822036.95-14.77ssw24.33--
3:59 PM841937.28-14.77ssw23.46--
2:59 PM852140.66-15.64s26.94--
1:59 PM861938.91-15.64s23.46--
12:59 PM852039.41-13.9s21.72--
11:59 AM842139.84-13.03s19.12--
10:59 AM832341.36-11.3s17.38--
9:59 AM762638.62-9.56s14.77--
8:59 AM733140.57-7.82s13.03--
7:59 AM693439.45-6.08ssw9.56--
6:59 AM673840.55-6.95ssw13.03--
5:59 AM683337.82-8.69sw13.9--
4:59 AM662124.95-8.69sw13.03--
3:59 AM682631.83-10.43ssw17.38--
2:59 AM682732.77-13.03ssw19.12--
1:59 AM663738.98-11.3ssw14.77--
12:59 AM683740.75-12.17ssw16.51--
High: 87ºf @12:59 PM    Low: 68ºf @12:59 AM     Approx. Precipitation / Rain Total: in.
Time (PDT)Temp. (ºf)Humidity (%)Dew Point (ºf)Barometer (inHG)Wind Speed (mph)Wind DirectionWind Gust (mph)1hr. Precip / Rain Total (in.)Snow Depth
11:59 PM693237.91-12.17ssw14.77--
10:59 PM702330.49-10.43ssw13.9--
9:59 PM702229.4-9.56sw13.9--
8:59 PM702330.49-9.56sw18.25--
7:59 PM703238.78-13.9ssw19.12--
6:59 PM742939.71-14.77ssw23.46--
5:59 PM783245.73-16.51ssw24.33--
4:59 PM813046.62-17.38ssw28.68--
3:59 PM832846.51-18.25s27.81--
2:59 PM842847.36-17.38ssw29.55--
1:59 PM862242.7-17.38s26.07--
12:59 PM871635.36-13.9ssw19.99--
11:59 AM841531.36-12.17ssw19.12--
10:59 AM822138.19-10.43ssw18.25--
9:59 AM802136.54-9.56s13.9--
8:59 AM772639.47-6.95ssw8.69--
7:59 AM742636.93-6.08ssw7.82--
6:59 AM703238.78-5.21ssw6.95--
5:59 AM691010.18-6.08ssw8.69--
4:59 AM683136.23-6.08ssw10.43--
3:59 AM692329.66-6.95sw11.3--
2:59 AM692026.26-6.95sw12.17--
1:59 AM683237.03-9.56ssw14.77--
12:59 AM683841.44-10.43ssw13.9--
High: 87ºf @2:59 PM    Low: 66ºf @2:59 AM     Approx. Precipitation / Rain Total: in.
Time (PDT)Temp. (ºf)Humidity (%)Dew Point (ºf)Barometer (inHG)Wind Speed (mph)Wind DirectionWind Gust (mph)1hr. Precip / Rain Total (in.)Snow Depth
11:59 PM693036.27-11.3ssw14.77--
10:59 PM693640.93-13.03ssw17.38--
9:59 PM695250.63-13.03ssw17.38--
8:59 PM694747.92-13.03ssw16.51--
7:59 PM705151.03-13.03ssw17.38--
6:59 PM763546.35-13.9ssw19.99--
5:59 PM802843.94-13.9s21.72--
4:59 PM832947.44-14.77ssw22.59--
3:59 PM852949.15-13.9ssw26.07--
2:59 PM872849.92-13.9s22.59--
1:59 PM862546.05-14.77s26.07--
12:59 PM861837.53-13.9s22.59--
11:59 AM842342.19-13.03s20.86--
10:59 AM822643.71-13.03s18.25--
9:59 AM782539.31-12.17ssw16.51--
8:59 AM753142.3-11.3ssw13.9--
7:59 AM705151.03-10.43ssw14.77--
6:59 AM665549.36-10.43ssw14.77--
5:59 AM664644.62-12.17ssw16.51--
4:59 AM663940.33-10.43ssw13.03--
3:59 AM673336.94-9.56ssw13.9--
2:59 AM664845.74-11.3ssw14.77--
1:59 AM664342.86-11.3ssw15.64--
12:59 AM665549.36-12.17ssw15.64--
High: 88ºf @1:59 PM    Low: 66ºf @2:59 AM     Approx. Precipitation / Rain Total: in.
Time (PDT)Temp. (ºf)Humidity (%)Dew Point (ºf)Barometer (inHG)Wind Speed (mph)Wind DirectionWind Gust (mph)1hr. Precip / Rain Total (in.)Snow Depth
11:59 PM674846.65-11.3ssw14.77--
10:59 PM675751.26-11.3ssw13.9--
9:59 PM666353.04-0.87ssw15.64--
8:59 PM695753.12-13.03ssw17.38--
7:59 PM705754.05-14.77ssw20.86--
6:59 PM754552.2-14.77ssw20.86--
5:59 PM803045.76-14.77ssw22.59--
4:59 PM832745.54-15.64ssw26.07--
3:59 PM853251.8-17.38ssw23.46--
2:59 PM872748.94-14.77ssw22.59--
1:59 PM882446.65-13.9s21.72--
12:59 PM873051.78-13.03s19.99--
11:59 AM862950.01-12.17s18.25--
10:59 AM832745.54-10.43ssw13.9--
9:59 AM812440.78-9.56s12.17--
8:59 AM792843.09-6.95ssw10.43--
7:59 AM771931.57-6.08sw8.69--
6:59 AM751727.23-6.08sw12.17--
5:59 AM693338.69-6.95sw11.3--
4:59 AM683337.82-7.82ssw12.17--
3:59 AM694144.31-5.21wsw8.69--
2:59 AM666152.16-5.21ssw10.43--
1:59 AM666353.04-6.95sw8.69--
12:59 AM695451.65-4.34wsw6.95--
High: 92ºf @2:59 PM    Low: 71ºf @11:59 PM     Approx. Precipitation / Rain Total: in.
Time (PDT)Temp. (ºf)Humidity (%)Dew Point (ºf)Barometer (inHG)Wind Speed (mph)Wind DirectionWind Gust (mph)1hr. Precip / Rain Total (in.)Snow Depth
11:59 PM714850.31-4.34wsw12.17--
10:59 PM772235.23-5.21wnw12.17--
9:59 PM762739.59-5.21w12.17--
8:59 PM782033.67-5.21w13.03--
7:59 PM802136.54-5.21wnw13.03--
6:59 PM823047.48-4.34wsw12.17--
5:59 PM853554.25-6.95ssw13.9--
4:59 PM872950.86-9.56ssw15.64--
3:59 PM892750.64-10.43ssw17.38--
2:59 PM922247.66-9.56ssw15.64--
1:59 PM912145.6-8.69ssw13.9--
12:59 PM882041.87-7.82s12.17--
11:59 AM891941.35-6.95ssw11.3--
10:59 AM891331.75-3.48w8.69--
9:59 AM851430.45-3.48w10.43--
8:59 AM831632.17-2.61wnw8.69--
7:59 AM781729.65-3.48wnw10.43--
6:59 AM761728.03-5.21wnw10.43--
5:59 AM731826.99-3.48wnw9.56--
4:59 AM731624.16-3.48nw9.56--
3:59 AM751320.83-4.34nw15.64--
2:59 AM751218.95-5.21nw13.9--
1:59 AM751116.94-4.34nw13.9--
12:59 AM761219.73-5.21nw14.77--
High: 96ºf @1:59 PM    Low: 72ºf @3:59 AM     Approx. Precipitation / Rain Total: in.
Time (PDT)Temp. (ºf)Humidity (%)Dew Point (ºf)Barometer (inHG)Wind Speed (mph)Wind DirectionWind Gust (mph)1hr. Precip / Rain Total (in.)Snow Depth
11:59 PM761117.7-5.21nw15.64--
10:59 PM761015.51-3.48nnw9.56--
9:59 PM77811.2-5.21nne11.3--
8:59 PM7878.96-4.34ne14.77--
7:59 PM7979.69-5.21ene12.17--
6:59 PM83815.64-4.34n12.17--
5:59 PM88716.24-4.34nnw14.77--
4:59 PM90717.69-6.08wnw16.51--
3:59 PM93719.86-4.34wnw11.3--
2:59 PM95617.7-3.48nnw10.43--
1:59 PM96618.41-5.21w11.3--
12:59 PM94616.99-5.21w13.03--
11:59 AM93616.28-5.21w11.3--
10:59 AM91821.54-2.61n10.43--
9:59 AM89922.84-3.48wnw7.82--
8:59 AM83918.36-3.48nw7.82--
7:59 AM791017.79-4.34nw13.9--
6:59 AM761219.73-4.34nnw12.17--
5:59 AM731624.16-4.34nnw13.03--
4:59 AM732029.55-3.48nw13.03--
3:59 AM722129.92-4.34nnw13.03--
2:59 AM731928.3-4.34nnw13.9--
1:59 AM742232.73-1.74nne10.43--
12:59 AM751929.94-4.34nw14.77--
High: 91ºf @3:59 PM    Low: 72ºf @2:59 AM     Approx. Precipitation / Rain Total: in.
Time (PDT)Temp. (ºf)Humidity (%)Dew Point (ºf)Barometer (inHG)Wind Speed (mph)Wind DirectionWind Gust (mph)1hr. Precip / Rain Total (in.)Snow Depth
11:59 PM751828.61-4.34n8.69--
10:59 PM751929.94-3.48nnw8.69--
9:59 PM771931.57-5.21nw13.9--
8:59 PM762436.59-6.95wnw15.64--
7:59 PM782640.32-5.21w14.77--
6:59 PM822744.69-4.34sw10.43--
5:59 PM872243.52-6.08sw10.43--
4:59 PM902043.5-6.95ssw16.51--
3:59 PM912145.6-7.82ssw16.51--
2:59 PM902043.5-10.43ssw18.25--
1:59 PM911841.57-12.17s17.38--
12:59 PM891839.96-8.69ssw16.51--
11:59 AM881839.15-8.69ssw13.03--
10:59 AM891636.95-6.95ssw11.3--
9:59 AM881636.16-3.48w7.82--
8:59 AM861736.09-3.48nnw5.21--
7:59 AM812036.13-2.61n7.82--
6:59 AM752334.68-3.48nw13.03--
5:59 AM742434.91-6.08wnw10.43--
4:59 AM732636.08-5.21wnw13.03--
3:59 AM742838.81-6.95wnw12.17--
2:59 AM723139.7-5.21wnw13.9--
1:59 AM733140.57-6.08w11.3--
12:59 AM742838.81-6.08wnw13.03--
High: 85ºf @3:59 PM    Low: 69ºf @5:59 AM     Approx. Precipitation / Rain Total: in.
Time (PDT)Temp. (ºf)Humidity (%)Dew Point (ºf)Barometer (inHG)Wind Speed (mph)Wind DirectionWind Gust (mph)1hr. Precip / Rain Total (in.)Snow Depth
11:59 PM752738.74-6.08wnw13.03--
10:59 PM752637.78-6.08w12.17--
9:59 PM712836.25-6.95sw11.3--
8:59 PM712937.13-8.69sw13.03--
7:59 PM732938.85-9.56ssw17.38--
6:59 PM782539.31-11.3ssw16.51--
5:59 PM812339.69-12.17ssw19.99--
4:59 PM832240.21-13.9s21.72--
3:59 PM852343.02-13.03ssw24.33--
2:59 PM842443.3-15.64ssw23.46--
12:59 PM842241.04-13.9ssw26.94--
11:59 AM842038.59-14.77ssw23.46--
10:59 AM822036.95-13.9ssw19.99--
9:59 AM792439.11-11.3ssw16.51--
8:59 AM762739.59-7.82ssw13.03--
7:59 AM712937.13-9.56ssw14.77--
6:59 AM703641.81-6.08sw9.56--
5:59 AM693540.2-6.08ssw11.3--
4:59 AM713541.96-0.87wsw8.69--
3:59 AM693540.2-5.21sw7.82--
2:59 AM713239.65-6.08sw10.43--
1:59 AM743141.43-4.34w10.43--
12:59 AM753142.3-5.21w13.03--
High: 88ºf @11:59 AM    Low: 69ºf @2:59 AM     Approx. Precipitation / Rain Total: in.
Time (PDT)Temp. (ºf)Humidity (%)Dew Point (ºf)Barometer (inHG)Wind Speed (mph)Wind DirectionWind Gust (mph)1hr. Precip / Rain Total (in.)Snow Depth
11:59 PM763042.31-6.08wnw13.9--
10:59 PM762941.43-6.95wnw13.03--
9:59 PM732535.09-5.21w11.3--
8:59 PM752536.78-10.43ssw17.38--
7:59 PM752435.75-13.03sw18.25--
6:59 PM792540.15-14.77s20.86--
5:59 PM832341.36-13.03ssw20.86--
4:59 PM851836.72-13.03ssw23.46--
3:59 PM871838.34-14.77ssw25.2--
2:59 PM881940.54-13.9ssw24.33--
1:59 PM872243.52-14.77ssw24.33--
12:59 PM882244.35-15.64s23.46--
11:59 AM882345.52-13.03s18.25--
10:59 AM852444.14-12.17s17.38--
9:59 AM822441.62-9.56s13.03--
8:59 AM772740.44-7.82s9.56--
7:59 AM753142.3-5.21sw8.69--
6:59 AM773244.86-3.48w5.21--
5:59 AM753444.71-3.48wnw8.69--
4:59 AM743544.6-5.21w11.3--
3:59 AM723945.67-6.95sw11.3--
2:59 AM692127.44-8.69sw15.64--
1:59 AM702734.48-12.17sw17.38--
12:59 AM692834.53-13.03ssw17.38--
High: 78ºf @6:59 PM    Low: 69ºf @11:59 PM     Approx. Precipitation / Rain Total: in.
Time (PDT)Temp. (ºf)Humidity (%)Dew Point (ºf)Barometer (inHG)Wind Speed (mph)Wind DirectionWind Gust (mph)1hr. Precip / Rain Total (in.)Snow Depth
11:59 PM693036.27-10.43ssw14.77--
10:59 PM703843.21-10.43ssw13.9--
9:59 PM724046.34-9.56ssw13.03--
8:59 PM724046.34-10.43sw19.12--
7:59 PM753847.65-12.17ssw18.25--
6:59 PM783648.86-13.03ssw20.86--
Past Weather Disclaimer Note regarding "Approx. Precipitation / Rain Total"

Currently

Fair 88°F
30.00in
Barometer
11%
Humidity
West 15.0mph
Wind
Fair

Past Weather Nearby

More Local Information

Bookmark and Share

Go Ad Free - Become a Member